VLG4ZN LEBL-LEMH

Flight info

Callsign VLG4ZN
Flight time 0h 27m
Altitude 19000
Route DUNES Q700 SARGO
Aircraft A319/M-SDE3FGHIRWY/LB1

Departure

Time 2026-05-05 16:49
Airport Josep Tarradellas Barcelona-El Prat Airport (LEBL)

Arrival

Time 2026-05-05 17:16
Airport Menorca Airport (LEMH)
Time Latitude Longitude Altitude Speed Heading
2026-05-05 16:27 41.29097 2.07796 21 ft 0 kts 155°
2026-05-05 16:39 41.29098 2.07796 19 ft 2 kts 155°
2026-05-05 16:39 41.29121 2.07782 19 ft 4 kts 155°
2026-05-05 16:40 41.29145 2.07765 20 ft 4 kts 141°
2026-05-05 16:40 41.29161 2.07740 19 ft 4 kts 103°
2026-05-05 16:40 41.29161 2.07716 19 ft 1 kts 65°
2026-05-05 16:40 41.29159 2.07711 20 ft 1 kts 65°
2026-05-05 16:43 41.29161 2.07715 19 ft 2 kts 65°
2026-05-05 16:43 41.29184 2.07783 19 ft 11 kts 66°
2026-05-05 16:44 41.29217 2.07884 19 ft 14 kts 66°
2026-05-05 16:44 41.29261 2.08013 19 ft 17 kts 66°
2026-05-05 16:44 41.29313 2.08169 19 ft 20 kts 66°
2026-05-05 16:44 41.29365 2.08341 19 ft 15 kts 98°
2026-05-05 16:45 41.29284 2.08427 20 ft 16 kts 155°
2026-05-05 16:45 41.29170 2.08497 19 ft 20 kts 155°
2026-05-05 16:45 41.29024 2.08587 19 ft 24 kts 156°
2026-05-05 16:45 41.28879 2.08676 16 ft 19 kts 144°
2026-05-05 16:46 41.28891 2.08812 18 ft 18 kts 67°
2026-05-05 16:46 41.28951 2.08990 17 ft 24 kts 66°
2026-05-05 16:46 41.29024 2.09198 18 ft 27 kts 65°
2026-05-05 16:46 41.29101 2.09429 17 ft 25 kts 65°
2026-05-05 16:47 41.29177 2.09651 19 ft 28 kts 65°
2026-05-05 16:47 41.29257 2.09885 17 ft 26 kts 66°
2026-05-05 16:47 41.29249 2.10098 15 ft 25 kts 113°
2026-05-05 16:47 41.29258 2.10262 14 ft 15 kts 84°
2026-05-05 16:48 41.29199 2.10259 16 ft 11 kts 254°
2026-05-05 16:48 41.29149 2.10113 17 ft 40 kts 245°
2026-05-05 16:48 41.28923 2.09457 19 ft 113 kts 245°
2026-05-05 16:48 41.28523 2.08293 156 ft 150 kts 244°
2026-05-05 16:49 41.28044 2.07065 856 ft 150 kts 231°
2026-05-05 16:49 41.27178 2.06258 1485 ft 158 kts 198°
2026-05-05 16:49 41.26015 2.06104 1836 ft 183 kts 184°
2026-05-05 16:49 41.24649 2.06039 2240 ft 203 kts 184°
2026-05-05 16:50 41.23188 2.05967 2734 ft 214 kts 184°
2026-05-05 16:50 41.21684 2.05891 3246 ft 217 kts 184°
2026-05-05 16:50 41.20169 2.05812 3752 ft 219 kts 185°
2026-05-05 16:50 41.18641 2.05731 4255 ft 220 kts 186°
2026-05-05 16:51 41.17152 2.05326 4768 ft 223 kts 203°
2026-05-05 16:51 41.15722 2.04400 5274 ft 233 kts 210°
2026-05-05 16:51 41.14232 2.03464 5785 ft 248 kts 198°
2026-05-05 16:51 41.12429 2.03359 6316 ft 277 kts 169°
2026-05-05 16:52 41.10678 2.04655 6812 ft 307 kts 137°
2026-05-05 16:52 41.09471 2.07127 7318 ft 333 kts 116°
2026-05-05 16:52 41.08666 2.10116 7809 ft 354 kts 108°
2026-05-05 16:52 41.08079 2.13321 8322 ft 362 kts 104°
2026-05-05 16:53 41.07568 2.16616 8832 ft 367 kts 103°
2026-05-05 16:53 41.07037 2.19938 9357 ft 370 kts 104°
2026-05-05 16:53 41.06446 2.23269 9875 ft 373 kts 106°
2026-05-05 16:53 41.05791 2.26615 10351 ft 376 kts 108°
2026-05-05 16:54 41.05090 2.29964 10833 ft 379 kts 109°
2026-05-05 16:54 41.04361 2.33323 11327 ft 381 kts 110°
2026-05-05 16:54 41.03618 2.36701 11828 ft 384 kts 110°
2026-05-05 16:54 41.02866 2.40111 12336 ft 387 kts 110°
2026-05-05 16:55 41.02117 2.43539 12859 ft 390 kts 110°
2026-05-05 16:55 41.01367 2.47006 13385 ft 393 kts 110°
2026-05-05 16:55 41.00617 2.50500 13893 ft 396 kts 110°
2026-05-05 16:55 40.99861 2.54023 14377 ft 400 kts 110°
2026-05-05 16:56 40.99091 2.57598 14865 ft 408 kts 110°
2026-05-05 16:56 40.98560 2.60057 15201 ft 414 kts 110°
2026-05-05 16:56 40.97760 2.63749 15700 ft 422 kts 111°
2026-05-05 16:56 40.96941 2.67510 16183 ft 429 kts 111°
2026-05-05 16:57 40.96108 2.71340 16712 ft 437 kts 111°
2026-05-05 16:57 40.95262 2.75235 17229 ft 444 kts 111°
2026-05-05 16:57 40.94405 2.79180 17764 ft 450 kts 111°
2026-05-05 16:57 40.93536 2.83184 18286 ft 455 kts 111°
2026-05-05 16:58 40.92660 2.87225 18708 ft 461 kts 111°
2026-05-05 16:58 40.91771 2.91313 18855 ft 464 kts 111°
2026-05-05 16:58 40.90873 2.95413 18888 ft 465 kts 111°
2026-05-05 16:58 40.89970 2.99515 18886 ft 465 kts 111°
2026-05-05 16:59 40.89064 3.03615 18888 ft 465 kts 111°
2026-05-05 16:59 40.88159 3.07710 18876 ft 464 kts 111°
2026-05-05 16:59 40.87255 3.11795 18887 ft 463 kts 111°
2026-05-05 16:59 40.86226 3.15811 18877 ft 459 kts 118°
2026-05-05 17:00 40.84764 3.19524 18885 ft 455 kts 125°
2026-05-05 17:00 40.83194 3.23159 18886 ft 455 kts 125°
2026-05-05 17:00 40.81626 3.26783 18886 ft 455 kts 125°
2026-05-05 17:00 40.80032 3.30460 18887 ft 455 kts 125°
2026-05-05 17:01 40.78461 3.34080 18889 ft 455 kts 125°
2026-05-05 17:01 40.76889 3.37701 18886 ft 455 kts 125°
2026-05-05 17:01 40.75318 3.41323 18886 ft 455 kts 125°
2026-05-05 17:01 40.73746 3.44948 18885 ft 455 kts 125°
2026-05-05 17:02 40.72178 3.48569 18884 ft 455 kts 125°
2026-05-05 17:02 40.70605 3.52195 18888 ft 454 kts 125°
2026-05-05 17:02 40.69037 3.55804 18887 ft 454 kts 125°
2026-05-05 17:02 40.67463 3.59423 18886 ft 454 kts 125°
2026-05-05 17:03 40.65915 3.62980 18881 ft 454 kts 125°
2026-05-05 17:03 40.64340 3.66591 18880 ft 454 kts 125°
2026-05-05 17:03 40.62764 3.70189 18882 ft 454 kts 125°
2026-05-05 17:03 40.61185 3.73785 18874 ft 454 kts 125°
2026-05-05 17:04 40.59603 3.77386 18703 ft 454 kts 125°
2026-05-05 17:04 40.58030 3.80968 18218 ft 449 kts 125°
2026-05-05 17:04 40.56482 3.84497 17505 ft 443 kts 125°
2026-05-05 17:04 40.54950 3.87985 16826 ft 438 kts 125°
2026-05-05 17:05 40.53429 3.91420 16156 ft 432 kts 127°
2026-05-05 17:05 40.51599 3.94447 15502 ft 416 kts 141°
2026-05-05 17:05 40.49320 3.96669 14872 ft 402 kts 155°
2026-05-05 17:05 40.46907 3.98462 14246 ft 391 kts 155°
2026-05-05 17:06 40.44608 4.00159 13632 ft 367 kts 156°
2026-05-05 17:06 40.42445 4.01749 12952 ft 347 kts 156°
2026-05-05 17:06 40.40377 4.03259 12264 ft 335 kts 156°
2026-05-05 17:06 40.38365 4.04721 11610 ft 325 kts 155°
2026-05-05 17:07 40.36421 4.06136 10965 ft 314 kts 155°
2026-05-05 17:07 40.34535 4.07508 10336 ft 306 kts 155°
2026-05-05 17:07 40.32707 4.08839 9973 ft 291 kts 155°
2026-05-05 17:07 40.30937 4.10128 9875 ft 286 kts 155°
2026-05-05 17:08 40.29222 4.11373 9878 ft 286 kts 155°
2026-05-05 17:08 40.27453 4.12653 9408 ft 285 kts 155°
2026-05-05 17:08 40.25728 4.13906 8885 ft 282 kts 155°
2026-05-05 17:08 40.24020 4.15150 8372 ft 280 kts 155°
2026-05-05 17:09 40.22319 4.16386 7876 ft 278 kts 155°
2026-05-05 17:09 40.20631 4.17612 7366 ft 277 kts 155°
2026-05-05 17:09 40.18921 4.18848 6887 ft 283 kts 155°
2026-05-05 17:09 40.17189 4.20099 6396 ft 287 kts 154°
2026-05-05 17:10 40.15433 4.21370 5892 ft 290 kts 154°
2026-05-05 17:10 40.13659 4.22654 5380 ft 292 kts 154°
2026-05-05 17:10 40.11879 4.23942 4883 ft 290 kts 154°
2026-05-05 17:10 40.10149 4.25192 4382 ft 279 kts 155°
2026-05-05 17:11 40.08375 4.26014 3878 ft 265 kts 173°
2026-05-05 17:11 40.06584 4.26059 3398 ft 253 kts 191°
2026-05-05 17:11 40.04868 4.25709 2904 ft 247 kts 192°
2026-05-05 17:11 40.03239 4.25369 2671 ft 230 kts 191°
2026-05-05 17:12 40.01709 4.25053 2547 ft 210 kts 191°
2026-05-05 17:12 40.00318 4.24766 2382 ft 194 kts 192°
2026-05-05 17:12 39.99036 4.24502 2409 ft 176 kts 192°
2026-05-05 17:12 39.97896 4.24267 2352 ft 158 kts 192°
2026-05-05 17:13 39.96849 4.24050 2200 ft 147 kts 192°
2026-05-05 17:13 39.95866 4.23847 2035 ft 141 kts 192°
2026-05-05 17:13 39.94896 4.23646 1858 ft 140 kts 191°
2026-05-05 17:13 39.93955 4.23452 1681 ft 133 kts 192°
2026-05-05 17:14 39.93051 4.23265 1493 ft 131 kts 192°
2026-05-05 17:14 39.92161 4.23082 1351 ft 128 kts 192°
2026-05-05 17:14 39.91260 4.22896 1148 ft 131 kts 192°
2026-05-05 17:14 39.90361 4.22710 970 ft 131 kts 195°
2026-05-05 17:15 39.89455 4.22525 809 ft 131 kts 193°
2026-05-05 17:15 39.88563 4.22337 618 ft 131 kts 191°
2026-05-05 17:15 39.87672 4.22155 447 ft 128 kts 191°
2026-05-05 17:15 39.86796 4.21975 315 ft 122 kts 191°
2026-05-05 17:16 39.86087 4.21825 304 ft 80 kts 188°
2026-05-05 17:16 39.85710 4.21752 295 ft 29 kts 185°
2026-05-05 17:16 39.85513 4.21798 286 ft 29 kts 159°
2026-05-05 17:16 39.85395 4.21902 282 ft 10 kts 85°
2026-05-05 17:17 39.85423 4.21924 283 ft 6 kts 18°
2026-05-05 17:17 39.85499 4.21947 285 ft 17 kts 10°
2026-05-05 17:17 39.85644 4.21975 291 ft 25 kts 10°
2026-05-05 17:17 39.85825 4.22013 294 ft 27 kts
2026-05-05 17:18 39.86014 4.22052 296 ft 29 kts
2026-05-05 17:18 39.86178 4.22092 298 ft 14 kts 32°
2026-05-05 17:18 39.86194 4.22225 289 ft 14 kts 52°
2026-05-05 17:18 39.86288 4.22279 288 ft 17 kts
2026-05-05 17:19 39.86411 4.22305 288 ft 9 kts
2026-05-05 17:19 39.86429 4.22354 287 ft 9 kts 106°
2026-05-05 17:19 39.86424 4.22398 289 ft 1 kts 98°
2026-05-05 17:19 39.86424 4.22399 289 ft 0 kts 98°